sat.trackr.live / text

‹ back to catalog

STARLINK-34756

NORAD 64849 · 2025-152H

PAYLOAD ACTIVE UNKNOWN

§ Identity

Operator
Country
US
Launch date
2025-07-19
Launch site
AFWTR
Launch vehicle
Mass (kg)
RCS (m²)

Purposes: comms

External: N2YO · Heavens-Above · Gunter

§ Orbital elements

Epoch: 2026-09-20T17:43:50.262816Z

Period
93.91 min
Inclination
97.2835°
Eccentricity
0.0001780
Mean motion
15.33420385 rev/d
Perigee alt
464.4 km
Apogee alt
466.8 km
Semi-major
6,843.8 km
B*
5.0621e-4
RAAN
114.3561°
Arg perigee
102.0101°
Mean anomaly
258.1342°
Rev number
6,486

§ Raw data

STARLINK-347561 64849U 25152H   26263.73877619  .00016290  00000+0  50621-3 0  99972 64849  97.2835 114.3561 0001780 102.0101 258.1342 15.33420385 64862

JSON: /api/v1/satellites/64849 · /tle

For live sub-satellite position, see the globe view (requires WebGL).

§ Visibility from observer

Set your observer location to see the next 7 days of passes ≥ 10°. The values pass through the URL so the page stays shareable.

No JS? Fill the form by hand. The geolocation button needs JavaScript.